Wind_Speed
20 20 17 13 13 14 15 15 16 17 19 22 24 26 28 32 33 29 29 30 33 38 38 38 35 33 35 29 26 31 26 27 31 30 27 24 24 27 30 34 35 35 35 35 37 39 40 41 42 42 43 43 43 43 43 43 43 43 42 40 38 37 36 36 35 33 31 27 24 26 32 36 39 43 45 45 44 44 43 41 42 43 44 47 47 45
19 19 16 12 13 14 14 15 17 17 19 22 23 27 29 31 33 31 30 31 33 39 41 44 38 27 31 32 25 23 24 28 30 26 24 23 26 31 33 35 34 34 36 37 40 42 45 47 48 50 51 51 52 52 52 52 51 51 51 49 46 45 43 42 42 40 39 35 30 27 27 32 36 38 41 45 44 44 45 42 42 44 46 48 48 48
19 18 15 13 14 14 14 15 17 18 20 22 23 27 28 29 33 30 28 32 36 39 42 45 40 27 26 24 19 23 26 26 26 22 23 28 32 35 34 33 32 34 37 40 43 46 49 52 55 57 59 61 62 62 61 60 59 58 57 57 54 53 51 50 51 50 48 44 39 33 28 27 32 35 37 42 43 41 45 44 42 46 49 50 49 50
19 17 16 14 14 15 15 15 17 19 21 23 24 25 26 28 29 27 30 37 39 41 41 40 37 23 12 13 20 29 26 22 22 22 27 32 34 33 30 31 33 37 41 44 48 51 54 58 61 63 65 66 65 64 63 62 62 61 59 59 59 58 57 57 57 57 56 54 48 41 34 26 28 32 34 38 41 40 43 45 45 47 51 51 50 51
20 18 16 15 16 16 15 16 18 21 23 24 24 24 25 26 25 27 34 40 42 39 32 33 32 10 9 11 29 30 21 19 21 24 29 29 27 25 26 32 37 40 45 50 55 58 61 62 63 64 64 63 61 60 60 61 61 59 56 55 56 57 57 57 59 59 59 59 54 49 42 32 27 29 30 32 36 39 40 42 45 46 49 52 52 54
20 18 17 17 19 17 16 17 19 21 24 24 23 22 23 24 25 29 34 40 40 28 20 28 26 6 8 11 24 23 18 19 24 29 29 25 24 26 30 35 39 43 49 55 59 59 61 61 62 62 61 59 57 57 58 59 57 54 51 49 49 51 51 50 50 51 54 55 54 51 48 41 33 29 29 28 29 35 38 41 44 44 46 51 53 54
19 18 19 20 20 18 16 19 20 21 23 22 21 20 20 22 26 31 34 36 33 25 29 33 21 15 18 14 13 17 18 24 31 31 27 26 29 31 34 39 44 49 53 55 56 57 59 62 63 62 58 54 52 52 53 53 52 50 47 44 44 46 47 44 40 37 41 45 45 45 47 48 44 37 33 31 28 29 36 40 42 43 45 49 53 53
18 19 20 21 20 18 18 20 20 20 19 19 20 19 19 23 27 32 35 35 34 33 35 30 16 18 20 11 8 14 21 28 30 26 25 29 31 32 38 44 48 50 53 55 56 57 59 60 61 60 56 52 49 48 46 45 45 45 43 41 41 43 44 43 38 31 32 35 37 38 40 46 50 49 45 41 34 30 34 36 37 41 46 49 53 54
20 20 22 22 19 17 19 21 19 17 17 18 20 19 21 25 28 33 35 36 34 25 20 16 11 13 13 8 9 17 24 24 22 24 28 30 32 37 43 46 48 51 53 55 55 55 56 56 56 56 54 52 49 47 45 43 41 40 40 39 39 39 41 42 39 32 31 33 34 35 37 40 46 51 53 49 40 33 34 36 35 38 44 48 51 53
21 22 21 19 19 21 21 19 17 17 18 19 19 20 23 26 31 32 33 34 26 15 14 13 6 7 11 15 16 14 15 17 20 24 26 30 37 42 44 46 50 54 55 55 55 54 52 51 51 51 51 50 48 47 45 43 41 39 39 39 38 37 38 41 40 35 33 34 35 35 36 39 42 47 51 50 45 38 33 34 36 39 43 46 48 51
21 20 18 19 21 21 19 16 16 16 18 18 18 22 26 27 30 29 28 27 17 9 10 9 7 4 9 14 15 12 12 17 21 22 27 35 41 42 45 51 55 56 56 57 58 56 54 53 53 52 52 50 48 47 45 42 40 38 37 37 38 38 37 38 41 40 36 35 38 38 36 38 41 44 47 49 50 45 36 32 34 37 43 46 47 49
18 18 20 22 20 19 17 15 16 16 16 17 19 23 24 21 20 18 15 11 6 5 6 9 7 9 9 10 12 14 17 21 21 24 33 38 41 46 51 55 55 56 58 59 59 60 59 58 58 57 54 53 53 52 51 48 44 40 36 35 36 37 37 37 40 42 40 37 38 40 39 37 40 43 45 47 50 49 43 36 32 32 38 45 47 48
20 22 22 19 18 18 16 14 14 15 14 16 18 18 14 11 9 7 5 5 8 8 8 9 13 16 20 21 17 17 18 20 21 26 33 39 44 50 53 54 54 56 60 62 63 64 64 62 60 58 57 58 59 59 59 57 52 46 40 37 37 37 37 38 39 42 42 39 38 41 42 39 39 42 46 47 47 47 46 41 36 32 33 40 45 47
16 18 17 16 17 17 16 14 13 12 13 16 17 11 5 5 6 6 5 6 9 10 11 14 15 16 21 20 17 19 18 18 22 28 35 42 46 48 53 54 51 56 63 65 65 66 65 62 58 59 59 58 61 65 65 62 57 51 45 41 40 40 39 38 39 41 43 42 39 40 43 42 40 41 45 49 47 44 46 45 42 37 33 35 43 47
9 11 13 14 14 14 16 16 15 15 17 18 15 7 5 5 5 6 6 5 8 17 22 18 10 7 10 11 12 18 21 18 22 34 42 45 46 49 54 51 49 58 66 66 66 66 64 61 60 61 55 49 57 69 70 64 59 54 49 46 45 44 41 40 39 40 42 43 41 39 42 44 42 41 42 48 50 46 45 47 47 44 38 34 39 44
10 13 14 13 14 14 15 17 17 17 15 13 11 8 7 10 10 11 11 11 13 18 19 14 10 9 11 14 17 22 25 23 27 42 48 48 50 53 55 51 52 62 67 65 66 64 58 56 58 62 62 61 68 73 70 64 58 54 51 49 48 47 44 42 42 41 42 44 44 41 41 44 44 42 41 45 50 49 47 48 50 50 45 38 36 40
9 12 13 11 13 15 17 18 18 14 9 9 10 9 12 16 15 13 12 12 11 11 12 14 16 17 13 12 15 20 23 25 34 45 50 52 54 57 58 58 59 66 69 67 65 61 56 52 52 62 75 78 72 68 66 62 55 51 49 49 50 50 47 44 42 42 42 45 46 42 42 44 45 43 41 42 47 51 51 50 51 53 52 46 41 39
14 16 17 15 15 17 17 16 15 13 11 10 11 11 15 14 12 9 4 6 7 8 13 17 17 19 16 9 13 20 24 31 41 48 54 56 56 60 63 64 66 68 69 67 63 58 57 58 62 72 80 77 69 68 70 64 56 49 45 45 48 50 50 46 44 43 42 44 47 45 43 44 45 43 42 42 44 49 53 53 52 53 53 52 49 42
17 16 16 14 15 16 14 12 12 13 13 12 12 15 12 7 5 6 3 3 7 7 9 14 17 20 17 10 12 22 30 36 44 51 56 57 58 62 65 66 67 69 70 67 59 52 53 62 74 82 83 82 81 81 78 71 62 54 47 42 42 45 48 46 44 44 44 44 45 46 45 45 45 44 42 42 42 46 52 54 53 52 52 53 53 47
17 12 9 9 12 13 12 13 12 11 13 13 12 12 13 11 6 7 5 5 6 7 8 12 16 11 7 11 21 29 32 36 45 52 55 57 58 62 65 65 67 69 69 61 51 53 63 73 80 84 87 90 90 84 80 75 66 59 52 43 39 41 43 43 42 43 44 44 44 45 47 47 46 44 43 43 42 44 49 53 53 53 52 53 53 48
18 14 10 9 12 12 12 14 14 13 14 13 10 11 14 13 8 8 11 12 12 9 5 8 12 7 9 22 32 31 30 37 46 50 53 56 59 63 64 64 66 69 67 59 54 62 75 80 83 87 91 95 93 83 76 71 62 54 50 44 41 43 43 42 42 42 42 43 43 44 48 49 48 46 43 43 42 43 47 50 53 54 52 52 53 50
17 16 14 13 14 16 16 18 19 19 20 17 14 14 16 15 9 6 9 12 15 12 8 8 13 18 26 33 31 27 32 42 46 49 53 56 60 64 65 64 67 69 69 69 70 74 78 80 84 90 94 95 93 85 74 65 56 48 45 42 41 43 46 45 44 42 41 43 44 45 47 50 50 47 44 44 43 42 44 47 51 54 53 52 53 51
16 17 17 17 18 19 20 20 19 19 18 14 14 15 17 17 11 8 7 9 12 13 13 14 14 22 30 29 26 31 40 46 46 49 54 57 61 65 65 66 66 67 70 73 75 78 81 84 87 93 96 93 91 86 75 63 50 43 42 40 39 41 44 46 44 42 42 44 45 45 47 50 51 48 45 45 44 42 42 44 48 54 54 52 52 50
16 16 16 17 16 17 17 15 14 14 12 11 14 15 18 18 14 13 13 13 14 14 15 12 11 18 24 26 32 38 43 46 45 49 53 56 60 63 65 65 61 63 72 76 76 80 85 89 93 98 97 94 90 83 75 63 48 40 40 38 37 39 40 42 44 42 42 44 47 47 48 50 51 49 46 44 44 43 40 40 44 52 54 53 52 49
16 15 13 10 8 8 8 6 7 11 13 14 15 15 18 21 19 17 16 13 13 16 15 9 10 22 29 33 39 39 39 43 45 49 53 54 59 64 64 63 62 67 74 75 77 82 85 88 95 99 97 93 88 80 73 63 48 38 37 38 38 36 35 37 40 42 42 44 47 48 49 51 52 50 47 44 44 42 40 37 39 47 52 52 53 49
20 20 18 13 8 7 6 5 6 10 13 16 18 18 20 23 21 16 12 11 13 15 15 15 21 35 40 39 42 41 38 41 46 51 55 57 62 63 61 62 67 73 74 75 77 80 82 87 93 96 95 90 83 75 69 62 50 40 35 36 39 37 34 33 35 38 41 44 47 49 50 51 53 52 48 45 44 43 40 36 35 42 48 50 52 50
25 26 25 22 20 18 16 16 17 17 17 19 21 21 23 24 22 16 11 13 18 18 20 27 34 39 40 40 43 41 37 40 47 52 56 61 63 60 59 65 71 73 72 74 76 76 81 88 93 94 92 85 77 69 65 59 50 41 37 35 37 38 36 33 33 34 37 41 45 48 49 50 53 53 50 45 46 45 41 36 34 37 44 48 50 52
27 28 27 25 24 23 21 21 21 21 23 25 23 22 23 22 21 20 18 19 19 15 21 34 35 33 38 43 42 39 37 41 46 49 55 61 60 58 63 69 72 72 72 73 74 76 81 87 92 93 90 83 74 66 61 56 49 42 39 38 37 36 35 35 35 36 38 40 42 46 48 49 51 54 52 47 46 47 42 36 33 34 39 45 49 51
27 27 26 22 21 21 20 20 22 23 25 26 23 22 22 21 22 23 23 22 19 18 27 35 33 34 41 43 40 40 40 39 40 45 55 60 58 61 67 70 71 72 72 72 73 77 82 86 90 91 88 80 72 64 58 53 48 42 39 38 37 34 33 34 35 36 39 42 44 46 48 49 51 54 54 49 47 49 44 36 33 34 37 43 47 49
25 24 22 18 20 23 22 22 25 25 25 25 22 20 22 24 24 23 22 19 19 25 33 33 32 37 40 38 38 41 40 37 39 47 55 57 59 64 68 69 71 72 71 71 73 77 83 87 89 89 85 77 70 64 58 52 48 44 42 40 38 36 35 38 40 40 40 42 45 48 49 50 52 55 56 52 48 49 45 37 34 35 37 42 45 45
22 21 19 17 22 26 25 24 24 22 21 21 20 21 26 26 22 20 20 18 18 25 29 29 32 38 36 33 36 41 42 41 44 50 55 56 59 64 66 67 69 69 68 70 74 79 83 86 89 90 84 77 71 65 59 54 50 47 47 45 43 41 42 44 45 46 45 44 45 49 51 51 52 56 59 55 50 49 46 40 37 36 37 41 43 43
21 22 21 20 23 25 24 21 19 20 19 20 22 25 23 19 17 18 20 17 17 23 27 28 33 36 34 33 38 42 45 47 49 52 54 56 59 63 63 64 64 64 65 69 74 80 83 85 89 89 82 75 71 66 59 56 53 50 50 49 47 45 45 47 48 48 48 46 45 48 51 52 52 55 60 57 51 49 47 43 40 38 37 40 43 42
22 22 22 20 18 19 19 16 16 16 12 15 22 20 12 11 16 19 19 16 16 22 27 29 32 33 33 35 40 45 48 49 52 54 54 56 59 60 60 60 61 62 65 70 74 78 80 83 87 87 78 71 70 66 60 55 53 51 51 51 49 46 46 49 50 49 48 46 44 45 48 51 51 51 56 57 51 48 48 44 41 38 36 39 43 42
23 22 23 20 14 14 15 13 12 11 11 16 20 14 13 16 22 18 17 18 20 22 25 27 29 29 30 34 38 44 48 49 52 53 52 54 57 57 56 57 58 62 66 71 75 78 79 81 86 86 78 70 69 68 62 55 51 49 50 51 49 46 45 48 49 49 48 45 41 41 43 48 50 48 49 53 51 48 47 44 40 37 35 39 43 42
23 23 23 22 19 18 17 12 8 8 12 15 12 12 17 22 20 18 21 23 22 23 24 26 26 26 29 33 37 41 45 49 51 51 49 52 54 54 54 54 57 62 67 71 75 78 79 80 84 86 81 72 68 67 62 57 51 47 47 48 48 47 45 46 49 49 48 45 40 38 39 44 47 45 44 46 48 48 46 42 38 35 34 38 42 42
23 23 24 23 22 18 12 10 8 7 7 8 12 20 24 17 12 19 27 26 25 26 25 24 23 25 30 36 38 40 44 50 52 50 48 50 52 51 51 53 56 61 66 70 73 76 77 77 81 85 83 76 70 66 61 56 50 47 45 45 46 47 46 48 51 50 48 47 42 37 37 39 42 41 39 41 45 46 44 40 37 35 34 37 41 41
24 24 24 23 22 18 15 17 20 18 13 14 20 22 18 14 14 21 25 27 29 27 22 20 22 28 34 37 39 40 44 50 53 52 51 51 52 50 50 52 55 60 64 67 70 74 74 74 78 82 83 80 73 68 63 56 50 47 45 44 45 46 47 48 50 50 49 48 44 38 35 35 36 37 36 39 43 44 41 38 36 35 36 37 38 39
25 25 25 23 21 21 19 17 15 13 11 13 16 15 12 15 18 19 23 30 29 21 17 20 26 33 36 37 39 41 43 49 54 54 53 53 53 52 52 54 55 59 63 65 69 72 72 72 75 78 82 81 74 69 66 59 53 49 48 47 47 46 47 47 46 47 48 48 45 39 34 32 33 34 35 38 41 41 39 37 36 36 36 36 36 36
26 26 25 25 23 23 21 13 8 9 9 10 13 13 12 15 16 17 21 26 22 16 18 26 31 34 35 36 39 41 42 47 52 53 53 54 54 52 53 55 56 59 61 63 67 71 71 71 73 76 80 80 75 70 67 62 56 53 51 49 48 46 45 44 43 44 46 47 45 39 31 29 31 33 35 38 40 40 38 37 37 37 36 35 35 34
28 27 27 31 32 30 27 20 17 20 19 16 17 18 16 16 16 13 11 15 19 22 27 31 32 33 35 36 38 39 40 44 49 51 51 52 53 52 52 54 57 59 61 62 65 69 70 70 71 74 78 80 76 72 69 65 60 56 54 51 47 45 42 40 40 41 43 46 45 37 28 26 29 33 35 37 39 39 38 38 38 38 36 35 35 33
29 29 30 35 36 33 29 24 23 28 28 23 20 22 22 19 15 12 12 19 26 27 30 31 31 32 35 36 37 39 40 41 45 49 50 51 53 54 53 54 56 58 60 62 64 67 69 68 70 72 75 77 76 73 70 68 63 58 56 52 47 43 40 38 38 38 40 43 41 32 24 23 28 33 35 37 39 38 38 37 38 38 36 35 34 34
28 29 30 33 34 33 30 22 19 26 30 20 13 17 19 19 18 19 23 28 29 28 30 31 31 32 35 36 38 39 41 43 45 48 51 52 53 55 55 55 56 57 59 61 63 66 68 69 70 71 72 74 74 72 70 68 64 60 56 52 47 42 39 36 34 33 35 40 36 25 19 22 27 32 33 35 36 36 35 36 38 39 37 35 34 35
26 24 25 30 30 25 22 17 12 17 20 13 11 15 18 21 24 27 28 29 29 29 29 30 31 32 35 37 39 40 41 44 46 49 51 52 53 54 55 55 56 57 59 61 63 66 68 69 70 71 71 72 73 73 71 68 65 60 56 52 47 42 38 34 29 29 32 34 28 17 14 18 23 26 28 29 31 33 33 34 37 39 38 37 35 35
27 26 26 29 28 22 21 21 17 16 17 17 20 22 22 24 27 29 29 30 30 29 29 30 32 33 35 38 39 40 42 44 46 49 52 52 53 54 54 54 55 56 58 61 63 65 68 69 69 70 70 71 72 72 70 67 65 61 57 53 47 40 36 31 25 25 27 26 19 10 9 13 17 21 24 26 29 31 32 34 36 38 38 37 35 35
27 26 24 27 30 27 26 28 25 23 24 27 28 26 23 24 26 27 29 29 29 29 30 31 32 34 36 38 39 40 41 44 47 49 51 52 54 54 54 55 55 55 57 59 61 64 66 68 68 69 69 69 69 71 70 66 64 61 57 53 48 41 35 30 23 20 21 18 12 6 5 9 13 17 20 22 25 28 29 31 33 35 36 36 35 37
23 20 21 27 31 30 31 33 31 28 29 30 27 24 23 24 25 27 28 28 28 29 29 30 33 35 36 37 39 39 40 43 46 48 50 52 54 54 54 55 55 55 56 58 61 63 64 65 66 68 69 68 67 70 71 66 61 59 56 52 47 41 35 30 22 16 14 13 10 5 4 8 10 13 17 19 22 24 25 26 28 30 33 35 36 38
22 19 24 29 31 30 33 34 30 28 29 28 26 26 27 26 25 26 27 27 27 28 28 30 32 34 35 37 38 39 40 43 46 48 50 52 53 53 54 54 55 56 56 57 60 62 63 64 65 66 67 68 67 68 70 68 61 56 53 51 46 40 34 29 23 14 9 8 9 6 4 8 11 13 15 17 17 18 20 22 24 27 30 33 36 40
19 20 25 29 30 33 36 33 29 28 30 27 25 25 25 25 26 26 26 27 27 27 28 30 32 34 35 36 37 38 40 43 46 48 50 52 53 53 53 54 55 56 56 56 58 60 61 63 63 63 65 67 68 67 68 69 64 56 51 50 48 41 33 28 23 16 9 6 6 6 5 7 10 13 16 16 14 14 16 19 23 26 27 29 34 39
18 22 26 28 31 35 34 28 23 26 27 23 21 23 25 26 27 26 26 26 26 26 28 30 32 33 33 33 36 38 40 43 46 48 50 51 52 53 53 54 55 56 56 56 56 58 59 60 60 61 62 64 66 66 66 69 67 60 52 49 48 44 36 29 24 18 12 7 4 3 4 6 10 14 17 17 15 14 15 16 20 24 26 27 30 36
22 25 25 27 32 33 28 20 18 21 24 22 22 24 25 26 26 26 25 25 25 26 29 30 31 31 30 31 35 38 40 43 45 47 49 50 51 52 52 53 54 55 56 55 54 54 56 56 57 58 58 60 64 65 64 66 68 65 56 48 45 44 40 32 25 19 13 9 5 3 4 7 11 15 18 18 17 16 16 15 16 20 24 26 29 33
21 22 21 24 28 27 22 18 18 21 23 23 23 25 27 27 26 25 24 24 25 26 28 30 30 29 29 30 33 37 39 42 44 46 48 50 50 51 51 52 54 55 56 55 54 53 53 54 55 55 55 58 61 63 63 63 65 68 63 52 44 41 40 35 27 20 15 12 8 4 5 8 11 15 18 19 20 19 18 16 16 18 21 24 27 31
Wind_Direction
320 323 324 317 315 314 308 309 307 304 302 302 304 305 305 306 305 307 311 312 315 317 317 322 328 325 322 324 312 308 316 320 319 320 321 319 315 315 315 313 312 312 315 318 319 318 315 313 310 308 305 302 301 300 298 296 293 293 292 291 288 288 292 293 294 294 293 293 291 275 258 250 244 240 240 239 238 238 239 239 232 223 225 232 233 230
320 322 321 310 310 308 302 303 302 301 298 298 301 303 305 306 304 307 309 309 314 314 313 318 323 324 323 320 308 305 313 315 316 322 325 321 319 317 312 310 312 316 320 321 319 317 315 314 311 310 308 305 302 300 300 299 296 294 293 292 290 288 289 292 294 295 296 293 291 285 271 261 253 245 241 240 241 241 238 237 233 224 223 229 232 232
319 319 316 307 306 304 297 297 298 299 297 296 301 304 306 306 307 310 308 310 314 312 311 315 318 321 318 309 300 307 311 313 320 326 325 319 315 310 305 306 312 316 318 317 316 315 316 316 316 315 313 310 308 307 307 306 303 300 297 296 293 289 288 290 293 294 295 294 289 284 277 272 262 254 248 240 240 244 238 233 231 226 223 226 229 232
317 316 313 303 301 298 291 293 297 298 297 297 302 304 303 304 309 311 309 310 311 310 310 312 316 317 299 289 304 313 313 315 319 319 316 312 308 304 305 313 317 318 318 317 317 317 317 318 318 318 316 314 313 313 313 313 311 309 307 304 300 297 294 291 293 294 295 295 292 284 273 271 268 261 256 246 240 242 239 233 232 227 222 223 224 226
313 311 308 300 299 295 287 293 299 299 298 298 300 302 301 301 303 303 305 308 309 310 309 315 324 311 188 290 311 312 312 310 312 312 311 306 300 300 307 314 317 320 322 322 322 321 320 318 316 315 314 314 316 318 317 315 314 314 313 311 308 305 304 300 297 296 296 295 293 288 274 263 264 263 261 256 247 241 238 235 235 233 225 221 221 224
308 305 302 300 298 290 284 294 300 297 297 297 296 296 296 296 299 301 305 308 310 312 308 319 329 288 207 296 308 308 301 295 305 309 309 306 304 308 313 317 319 321 322 322 322 320 318 315 312 312 313 314 316 316 316 313 313 314 313 313 311 310 309 308 304 299 295 293 291 290 280 266 260 260 261 266 260 245 238 238 240 238 230 224 222 226
303 298 296 297 293 282 281 294 297 292 293 293 289 289 289 292 297 301 304 306 307 304 299 307 307 277 287 297 293 302 294 294 304 306 307 311 314 319 322 322 322 321 319 317 316 314 312 311 310 312 315 316 316 314 314 313 312 311 311 312 312 311 310 309 308 299 291 288 286 286 284 274 266 263 262 269 273 256 241 239 239 237 233 226 222 226
299 294 293 292 285 274 281 294 291 285 285 283 282 285 287 290 295 298 299 298 297 297 299 304 293 276 290 286 273 296 293 294 298 296 302 308 312 320 322 321 320 318 317 316 315 313 312 312 313 315 315 315 315 313 312 312 313 311 309 309 309 309 307 306 307 298 281 281 280 277 280 278 270 265 266 269 272 265 253 245 238 233 232 228 224 226
296 292 291 288 278 273 284 291 283 278 277 275 279 283 285 288 293 296 295 295 298 301 300 301 293 279 277 265 278 289 283 283 286 295 305 309 315 321 320 318 317 317 318 319 319 318 317 316 316 316 316 315 315 314 312 311 313 312 309 307 305 305 304 303 305 300 284 278 277 272 272 276 274 268 266 268 269 268 262 254 242 230 229 230 227 226
292 291 288 282 274 276 285 283 273 273 273 272 277 280 281 286 293 295 294 295 297 295 287 284 267 262 275 285 290 279 270 280 295 304 311 316 321 320 316 316 319 322 324 325 325 325 323 322 320 319 318 317 316 315 314 311 310 310 308 306 303 302 301 301 302 302 293 282 278 275 270 270 274 272 266 263 264 266 264 256 246 236 232 231 228 227
285 284 281 278 276 279 280 272 266 266 267 271 274 278 283 288 295 298 294 293 293 277 265 235 196 248 292 298 289 267 273 297 301 307 313 316 316 315 317 323 326 327 329 331 331 331 331 330 328 326 324 323 320 318 316 312 309 308 306 303 301 300 299 299 300 301 299 290 280 279 276 269 268 272 270 264 259 260 262 258 251 245 238 233 230 230
279 278 281 282 278 278 277 268 262 261 264 269 274 285 296 301 304 299 284 276 270 257 228 204 234 279 277 279 273 259 274 289 294 308 313 312 314 318 326 331 330 330 333 335 334 334 334 333 331 330 330 329 326 324 321 317 312 308 304 299 298 297 297 296 296 297 299 296 286 279 280 277 268 267 270 268 260 256 259 258 252 251 242 233 231 230
279 280 281 278 275 276 272 260 255 259 261 266 277 293 305 314 313 294 263 251 261 256 225 237 278 283 275 278 268 252 262 273 284 305 312 316 324 327 331 334 330 331 337 339 336 334 333 332 331 331 332 332 331 328 326 321 316 309 302 296 294 294 293 293 293 294 296 296 291 281 277 279 275 266 264 267 264 256 255 255 251 251 245 235 232 230
281 277 266 262 269 269 258 245 238 251 266 273 286 297 297 314 319 298 290 290 281 268 253 263 278 280 282 280 258 252 263 268 286 312 323 328 332 329 330 333 330 333 340 341 337 334 332 332 332 332 332 332 333 332 329 323 317 310 302 295 291 290 290 290 290 290 292 293 292 284 277 276 279 273 264 262 263 258 253 252 249 248 247 239 232 229
266 265 258 254 256 256 251 237 231 256 277 279 280 268 240 271 275 277 301 310 302 298 291 282 262 259 286 275 255 268 275 274 300 324 333 334 331 328 331 333 331 336 342 341 336 333 332 334 336 335 332 328 330 332 329 324 318 309 301 293 288 287 287 289 289 287 288 289 290 285 277 274 278 280 271 261 259 258 252 249 247 245 246 243 233 233
251 258 265 253 244 249 246 238 247 268 277 273 259 232 251 273 256 255 278 286 293 299 295 277 254 271 284 271 272 280 276 281 311 327 332 332 329 329 333 332 332 338 342 339 335 333 332 334 334 334 334 331 331 331 329 324 318 308 300 292 286 284 285 286 286 286 285 285 286 284 277 272 275 280 278 266 257 255 253 248 246 246 245 244 237 235
256 262 270 254 244 248 249 253 259 258 262 264 245 238 272 279 264 256 273 287 288 283 278 275 282 293 288 263 271 278 277 291 312 324 330 330 329 332 335 333 335 340 340 338 336 334 332 332 330 331 334 334 333 332 330 325 318 309 299 293 287 283 283 283 284 283 282 280 281 281 276 270 272 277 280 274 261 255 253 250 248 247 245 244 242 238
261 268 273 264 258 260 259 260 251 246 264 258 240 264 281 277 260 243 264 314 294 273 276 279 285 294 295 277 271 283 294 305 314 324 330 329 331 335 335 334 337 339 340 339 337 333 331 332 332 334 336 335 332 331 330 326 319 311 300 293 288 283 281 280 280 281 279 278 277 277 274 269 269 273 277 276 267 258 254 252 249 248 245 243 243 241
265 270 274 261 254 261 258 249 245 255 260 240 249 276 268 250 232 197 182 301 285 283 286 286 290 290 289 276 278 298 309 313 319 325 328 330 333 337 335 334 337 339 339 338 334 330 329 330 333 335 337 336 333 331 330 326 320 311 301 292 286 283 280 276 275 276 275 275 274 272 272 269 268 270 273 275 271 263 257 253 250 248 245 242 241 241
264 262 271 247 236 249 250 246 247 247 244 243 262 262 234 232 233 210 228 258 258 274 279 290 301 293 266 278 297 309 314 318 323 326 327 331 334 335 334 333 337 340 338 334 331 328 329 331 334 336 336 335 333 331 327 323 317 309 300 290 279 276 277 273 270 270 270 270 270 269 268 268 267 267 270 274 273 266 260 255 251 248 245 242 239 239
257 248 253 243 235 240 244 255 257 247 252 256 242 218 221 235 234 242 266 254 241 258 270 288 295 271 262 294 303 310 318 322 325 326 327 330 333 335 334 334 337 338 335 332 329 329 331 334 336 337 335 333 330 328 325 320 314 308 302 293 278 268 267 267 265 265 267 266 265 266 266 265 266 265 266 270 272 269 263 256 252 249 247 243 237 236
253 246 245 236 235 240 248 264 270 266 270 264 233 218 230 237 235 258 272 250 240 238 228 250 274 277 285 299 309 316 322 324 324 326 329 330 333 335 335 335 336 336 335 334 332 332 334 336 337 335 333 331 329 328 327 320 313 309 306 300 287 273 265 263 262 261 263 263 261 261 263 264 264 263 263 266 269 270 266 259 253 250 248 244 237 233
251 250 250 245 249 256 259 265 268 268 270 254 226 228 242 244 244 253 252 255 260 248 236 244 262 278 288 302 316 318 319 323 325 329 331 331 333 336 336 336 335 334 336 336 334 335 337 337 336 333 332 332 330 329 327 322 314 310 309 306 299 288 273 262 259 258 259 260 259 257 258 262 263 262 260 263 267 270 269 263 256 252 249 245 237 232
250 251 254 257 263 266 265 267 265 259 252 235 227 237 247 245 247 258 259 267 276 262 248 252 260 269 282 302 314 316 320 323 325 330 331 331 333 336 336 335 334 333 335 335 335 338 339 337 335 333 333 333 331 329 326 321 313 307 308 306 302 300 289 270 256 253 255 256 256 255 255 257 261 262 259 258 262 267 269 264 258 254 251 246 237 231
251 246 247 262 277 265 256 249 230 230 233 239 243 244 248 250 254 265 265 259 263 256 244 235 256 276 293 309 313 317 322 321 324 329 331 331 334 337 337 336 335 334 334 336 338 340 339 335 333 333 334 334 331 328 325 320 312 302 302 302 299 300 298 282 260 250 251 253 254 254 253 253 257 260 258 256 258 262 265 263 258 256 253 247 238 231
251 246 244 251 257 252 257 261 248 246 247 250 254 259 263 263 263 266 257 235 245 255 245 234 257 284 304 315 314 318 322 319 322 329 331 334 338 339 337 335 335 335 336 339 341 339 335 333 333 335 335 333 330 326 323 319 312 303 299 300 298 296 295 289 273 259 252 250 252 254 253 252 254 257 257 255 254 256 259 259 257 256 254 248 239 232
252 253 254 254 252 254 265 277 282 280 271 263 265 273 276 273 271 265 233 226 252 266 266 265 271 285 303 314 315 319 321 319 322 327 332 338 340 338 335 334 335 337 339 342 340 336 333 333 335 335 334 332 330 326 323 320 315 308 303 302 299 295 292 288 283 274 264 256 253 254 254 252 251 254 255 253 252 252 253 254 253 253 252 248 240 234
254 260 263 262 260 259 263 273 281 283 278 272 273 280 281 275 272 264 244 249 269 269 272 284 288 290 299 310 315 318 318 318 322 327 334 339 340 335 333 333 336 339 342 343 339 334 333 334 335 335 334 332 330 328 325 321 317 312 309 308 303 298 295 292 288 283 276 270 263 258 257 255 252 252 252 250 249 249 248 250 251 251 249 245 240 235
255 261 265 265 264 264 265 274 282 282 279 275 276 285 284 274 273 274 265 266 268 254 265 286 295 292 300 311 315 315 316 317 321 328 335 339 338 333 333 335 339 342 344 342 337 333 333 335 336 336 335 333 331 329 326 322 319 316 314 313 309 306 305 304 301 294 285 278 271 266 261 257 254 254 252 248 246 246 246 247 250 251 247 242 238 236
252 260 263 262 270 273 272 280 286 281 276 272 273 282 284 278 276 275 269 265 259 258 271 285 290 292 303 313 313 313 314 316 322 330 336 339 336 333 335 338 342 344 343 339 335 334 335 336 337 338 338 335 333 330 326 322 318 316 316 314 310 311 314 313 311 307 297 284 274 268 264 258 255 255 253 248 244 246 245 245 250 251 246 241 237 236
246 255 258 265 277 279 278 284 285 277 271 267 271 282 284 280 275 269 266 262 258 268 282 288 288 295 307 312 309 310 314 318 326 333 339 339 336 335 338 341 343 342 339 336 335 336 336 336 338 341 341 338 336 332 327 321 316 313 313 312 309 310 314 315 313 310 305 294 279 269 264 259 254 252 253 248 242 244 245 245 250 251 245 241 237 235
244 251 259 270 277 277 281 285 278 275 271 264 275 288 283 272 273 277 273 264 263 280 291 292 291 299 308 309 309 313 318 322 328 334 340 340 337 338 341 342 341 339 337 336 337 338 338 338 341 344 343 339 338 335 328 321 315 311 312 311 310 310 313 315 314 311 309 303 288 273 264 260 255 250 249 247 241 241 243 244 248 249 244 241 236 235
248 252 261 269 272 274 280 279 277 282 273 265 282 285 262 263 289 287 273 264 275 289 293 292 295 302 308 309 312 319 323 325 327 334 340 339 338 340 341 339 338 337 337 338 338 339 340 341 344 347 345 341 340 338 333 324 315 311 311 311 312 312 313 314 314 313 312 308 296 281 267 260 257 252 247 244 239 237 240 242 245 245 241 238 234 234
252 255 261 263 263 270 271 269 280 280 258 274 287 259 234 284 299 283 269 276 288 294 293 294 296 299 304 308 313 318 322 323 326 332 338 339 340 341 340 338 337 337 337 339 339 341 342 343 345 348 348 345 343 341 338 331 320 312 310 311 312 311 311 313 315 315 315 312 301 287 271 260 258 255 249 242 236 234 236 238 241 241 236 233 232 231
252 254 256 255 254 261 265 264 278 273 258 275 281 245 261 292 293 276 282 293 298 302 301 297 296 298 304 309 313 316 319 321 324 330 337 340 341 341 339 337 337 337 338 339 340 341 343 344 347 349 349 348 346 343 340 335 328 318 312 310 309 309 309 311 314 316 315 313 304 290 275 263 258 256 250 240 232 230 232 234 236 235 230 228 229 229
250 249 251 250 248 253 253 230 230 260 264 264 277 279 280 281 272 282 295 301 306 310 305 297 298 307 312 312 314 318 320 320 323 331 340 343 342 341 339 337 337 338 339 339 340 342 343 345 349 351 351 350 348 345 341 337 331 323 317 311 307 307 307 307 309 313 315 315 310 295 280 268 260 255 246 233 228 227 226 228 230 227 223 224 226 227
245 245 246 246 243 243 241 238 248 265 271 268 277 280 269 257 275 293 298 303 311 311 302 296 304 311 314 315 317 320 322 322 326 335 343 343 341 340 338 337 336 337 338 339 340 342 344 347 352 353 352 350 348 346 343 339 332 326 321 317 311 309 308 307 308 310 314 316 313 300 285 272 259 248 235 224 222 222 220 222 223 219 218 221 223 225
238 241 242 240 239 242 246 252 261 264 266 268 265 260 261 276 291 297 296 303 310 305 291 298 309 313 314 317 319 322 325 326 330 338 343 341 340 339 337 335 335 336 338 340 341 342 344 348 353 354 353 350 348 346 344 342 337 330 325 321 318 315 312 311 310 309 311 316 315 302 285 271 254 238 223 216 216 217 216 217 216 214 215 218 220 222
229 234 235 233 235 238 236 239 245 239 253 269 257 257 280 290 290 294 297 300 306 301 296 304 312 314 315 317 319 323 330 331 332 337 341 339 339 339 337 334 335 336 339 341 343 343 346 350 353 356 354 351 349 347 345 343 342 337 332 327 322 319 315 312 311 310 311 316 317 305 285 266 247 227 214 211 213 213 213 213 211 210 212 215 217 218
220 224 224 225 231 235 233 238 248 248 257 272 267 268 280 281 280 286 289 294 302 303 302 306 311 315 315 316 319 324 331 332 331 334 338 337 337 339 338 335 336 337 339 343 345 345 347 351 355 357 356 352 350 348 345 344 343 342 339 334 326 321 318 316 314 312 312 317 318 307 285 260 237 218 208 208 210 210 211 211 209 209 211 213 215 217
214 219 221 225 232 234 232 238 250 256 264 275 271 267 269 264 257 252 264 290 300 300 301 305 311 314 314 315 318 323 328 331 331 332 336 336 337 339 339 337 338 339 340 344 348 348 349 353 356 358 358 354 351 349 346 343 342 342 343 340 333 325 321 319 317 314 314 319 319 307 282 251 225 209 204 206 209 209 209 208 208 210 212 213 214 216
212 215 221 227 231 234 236 239 250 265 276 281 255 239 241 239 245 262 280 293 297 297 300 306 310 313 314 315 318 322 326 329 331 333 336 337 337 338 339 338 339 340 341 343 346 348 349 353 356 358 359 356 352 350 347 343 341 342 343 342 340 333 328 326 322 317 317 321 320 306 273 239 215 204 203 206 211 212 210 208 209 212 214 214 214 216
224 219 221 228 230 230 228 222 232 269 284 279 242 239 245 252 267 283 290 292 293 295 300 305 309 312 314 315 318 322 325 328 331 333 336 337 336 337 338 338 339 340 341 342 345 346 348 352 356 358 359 359 355 352 349 344 341 342 342 343 343 340 337 335 328 321 324 326 321 301 257 226 208 200 202 208 214 216 214 211 211 213 216 218 218 218
229 223 226 236 235 222 214 220 240 274 283 274 273 280 280 275 280 287 289 289 293 296 301 305 309 312 314 316 318 321 325 328 330 333 335 335 335 336 338 338 339 340 342 342 344 346 348 352 356 356 358 1 358 354 351 347 344 344 344 343 344 343 342 341 333 326 331 333 321 291 231 203 197 197 202 209 213 214 214 213 213 215 218 220 221 220
233 235 243 250 247 242 245 254 266 276 275 276 283 289 283 276 279 283 284 286 290 295 300 306 309 311 314 316 317 321 325 328 330 332 334 334 335 336 337 338 339 340 341 342 343 345 348 352 355 356 358 1 0 356 353 350 347 347 346 344 345 346 346 345 341 336 341 342 327 295 199 176 185 194 199 207 213 215 215 215 216 217 219 222 223 221
242 247 251 254 255 258 263 267 271 275 277 281 286 287 281 278 278 279 280 282 286 293 299 304 307 310 313 315 317 321 326 328 330 332 333 333 334 336 337 338 339 339 341 343 343 345 348 351 355 356 358 0 1 359 357 353 349 350 350 348 347 349 350 349 349 352 356 352 339 315 186 170 181 195 202 208 214 217 217 218 219 220 222 224 223 221
244 246 248 252 257 260 263 268 277 284 285 284 283 282 281 279 275 273 276 280 285 291 297 301 305 309 312 314 317 321 326 329 330 331 332 333 334 335 337 339 339 339 341 343 344 345 347 349 353 356 357 358 360 1 0 357 353 352 354 353 351 353 355 354 353 360 10 356 338 318 233 199 197 204 211 215 220 221 220 221 223 224 226 226 222 220
249 250 247 252 258 261 266 276 285 285 280 277 275 276 276 273 270 270 275 280 285 290 295 300 303 307 310 313 317 322 327 330 330 331 332 333 334 336 337 339 339 339 341 343 344 345 346 349 352 355 357 357 358 360 1 0 357 354 355 357 356 355 359 2 358 356 6 8 344 326 292 252 234 225 221 225 237 243 237 233 231 230 231 230 223 218
253 250 249 257 263 265 270 282 290 284 278 274 271 272 274 272 271 273 276 281 286 291 295 298 301 305 309 313 317 322 328 330 331 332 333 334 335 336 338 339 339 339 340 342 345 346 347 348 351 355 358 358 356 358 1 2 360 357 356 358 358 356 360 6 3 354 356 12 7 333 299 276 263 250 239 240 253 262 256 249 243 237 235 234 228 220
249 254 259 264 266 270 278 290 292 284 279 276 275 275 274 272 272 274 279 284 288 291 293 296 300 305 310 314 319 324 328 330 331 333 334 335 336 337 338 339 339 339 339 342 344 346 347 348 350 355 359 358 356 358 0 1 1 2 360 357 358 358 358 1 2 355 352 359 2 334 282 265 263 262 257 257 265 269 262 258 257 248 238 233 230 225
258 267 273 271 271 280 292 297 288 279 277 279 280 277 274 274 276 278 282 286 288 290 293 297 302 307 312 317 322 326 328 331 332 333 334 335 336 337 338 339 339 339 339 341 344 346 347 348 350 354 359 359 356 357 359 360 2 4 3 360 358 358 358 357 356 354 352 349 346 330 290 267 262 265 265 266 272 275 268 261 262 257 243 232 229 229
Height
3142 3141 3140 3139 3137 3136 3134 3133 3131 3130 3128 3125 3123 3121 3119 3116 3113 3112 3111 3109 3106 3102 3101 3106 3108 3104 3101 3099 3093 3085 3085 3084 3081 3080 3077 3075 3072 3070 3069 3065 3062 3060 3058 3056 3054 3051 3049 3046 3044 3042 3039 3037 3036 3033 3031 3028 3025 3021 3018 3015 3013 3010 3008 3006 3004 3002 3001 2999 2997 2995 2994 2994 2994 2994 2995 2996 2997 2997 2998 2999 3000 3002 3004 3007 3011 3013
3141 3139 3138 3137 3135 3134 3132 3131 3130 3128 3126 3124 3122 3119 3117 3114 3110 3110 3109 3107 3106 3101 3098 3101 3103 3101 3097 3093 3086 3083 3083 3081 3078 3076 3074 3071 3070 3068 3067 3063 3059 3057 3055 3053 3051 3048 3045 3042 3039 3037 3034 3031 3029 3027 3024 3021 3019 3016 3013 3010 3008 3005 3003 3001 2999 2997 2995 2995 2993 2991 2989 2988 2987 2988 2989 2989 2991 2992 2993 2994 2995 2996 2997 3000 3004 3007
3138 3137 3136 3135 3133 3132 3130 3129 3128 3126 3125 3122 3120 3118 3115 3112 3108 3106 3105 3104 3104 3100 3096 3096 3097 3097 3094 3088 3082 3080 3080 3078 3075 3073 3071 3069 3068 3067 3064 3060 3057 3055 3052 3049 3047 3044 3041 3038 3034 3031 3028 3024 3021 3018 3015 3012 3010 3008 3006 3003 3001 2999 2997 2995 2992 2990 2989 2989 2989 2987 2984 2982 2980 2980 2981 2982 2984 2986 2987 2989 2990 2990 2991 2992 2996 3000
3135 3135 3134 3133 3131 3130 3129 3127 3126 3124 3123 3121 3119 3117 3114 3111 3109 3105 3102 3101 3101 3099 3095 3094 3093 3093 3091 3085 3080 3077 3075 3075 3073 3071 3069 3067 3065 3063 3060 3057 3054 3051 3048 3045 3043 3040 3037 3034 3030 3026 3022 3017 3013 3010 3007 3004 3001 3000 2998 2996 2994 2992 2991 2989 2986 2984 2982 2982 2982 2982 2980 2977 2975 2974 2975 2975 2977 2979 2980 2983 2984 2984 2985 2986 2988 2991
3133 3132 3131 3130 3129 3128 3127 3125 3124 3122 3121 3119 3117 3115 3112 3111 3109 3106 3102 3100 3098 3097 3094 3092 3089 3088 3088 3084 3079 3076 3073 3072 3071 3069 3067 3064 3063 3061 3058 3056 3052 3048 3045 3042 3039 3036 3033 3030 3027 3024 3019 3013 3009 3004 3000 2998 2995 2993 2991 2990 2987 2985 2983 2982 2980 2978 2976 2975 2974 2975 2974 2973 2970 2968 2968 2968 2970 2972 2973 2976 2978 2979 2980 2981 2982 2984
3130 3130 3129 3128 3126 3125 3125 3123 3122 3120 3118 3117 3115 3114 3111 3109 3108 3106 3104 3100 3096 3095 3093 3092 3090 3084 3084 3083 3079 3076 3073 3070 3069 3066 3064 3062 3059 3058 3055 3052 3049 3046 3044 3041 3038 3035 3031 3028 3024 3020 3015 3010 3006 3001 2996 2993 2991 2988 2986 2984 2982 2979 2977 2975 2973 2972 2971 2969 2967 2967 2967 2967 2965 2962 2961 2961 2962 2963 2966 2969 2971 2974 2976 2977 2978 2980
3128 3127 3126 3125 3124 3123 3122 3121 3120 3118 3116 3115 3113 3112 3110 3109 3106 3104 3104 3101 3097 3094 3091 3095 3095 3083 3079 3080 3077 3075 3072 3068 3067 3063 3060 3059 3056 3054 3052 3048 3046 3044 3042 3040 3038 3035 3030 3025 3019 3015 3011 3006 3002 2998 2993 2989 2987 2984 2981 2979 2976 2974 2972 2969 2967 2966 2965 2963 2962 2960 2959 2959 2959 2957 2955 2955 2954 2955 2958 2960 2963 2966 2970 2972 2973 2975
3125 3124 3123 3122 3121 3120 3119 3118 3117 3116 3114 3112 3110 3110 3108 3107 3105 3103 3102 3100 3097 3093 3089 3091 3093 3083 3077 3077 3075 3073 3071 3067 3064 3062 3059 3057 3054 3052 3049 3047 3045 3043 3041 3038 3034 3030 3026 3020 3014 3009 3006 3002 2998 2994 2990 2986 2983 2980 2976 2973 2971 2969 2967 2964 2961 2959 2958 2957 2956 2955 2952 2951 2951 2951 2950 2949 2949 2949 2950 2952 2954 2958 2963 2966 2968 2969
3122 3121 3120 3118 3117 3116 3116 3115 3114 3113 3112 3109 3108 3107 3106 3105 3104 3102 3099 3097 3094 3092 3088 3086 3088 3082 3075 3075 3074 3070 3068 3065 3062 3060 3057 3054 3052 3049 3047 3046 3044 3042 3038 3034 3030 3026 3021 3016 3010 3005 3001 2997 2994 2990 2986 2982 2979 2976 2972 2969 2967 2964 2962 2959 2957 2955 2953 2952 2950 2949 2947 2944 2943 2944 2944 2944 2944 2944 2945 2946 2947 2951 2955 2958 2961 2963
3118 3117 3116 3115 3114 3113 3113 3112 3111 3110 3108 3107 3106 3105 3104 3103 3101 3100 3097 3094 3093 3090 3086 3084 3085 3081 3073 3071 3071 3067 3063 3062 3060 3057 3055 3053 3050 3047 3045 3044 3042 3038 3033 3029 3024 3020 3016 3011 3006 3001 2997 2993 2989 2985 2981 2978 2974 2971 2968 2965 2962 2959 2956 2954 2951 2950 2948 2946 2945 2942 2941 2939 2936 2936 2937 2938 2939 2938 2939 2940 2941 2944 2947 2950 2954 2957
3114 3114 3113 3112 3111 3109 3109 3109 3107 3107 3105 3105 3105 3103 3102 3101 3099 3097 3093 3091 3090 3086 3082 3081 3082 3081 3074 3067 3066 3064 3060 3059 3056 3055 3053 3051 3048 3046 3044 3042 3036 3031 3027 3022 3017 3013 3009 3005 3000 2996 2991 2987 2984 2980 2976 2973 2969 2966 2962 2959 2956 2953 2951 2948 2946 2944 2942 2941 2938 2936 2934 2933 2931 2930 2930 2931 2932 2932 2932 2932 2934 2936 2939 2942 2946 2950
3111 3110 3109 3107 3107 3106 3106 3105 3104 3103 3103 3103 3103 3101 3100 3098 3095 3091 3088 3088 3087 3082 3080 3079 3078 3078 3073 3066 3063 3061 3059 3057 3054 3052 3050 3049 3046 3044 3041 3037 3031 3026 3022 3017 3012 3007 3003 2998 2994 2989 2986 2982 2978 2974 2970 2967 2963 2960 2956 2953 2949 2947 2945 2943 2940 2938 2936 2935 2932 2930 2929 2927 2926 2925 2924 2924 2925 2925 2925 2925 2926 2928 2931 2935 2939 2943
3107 3106 3105 3104 3103 3103 3102 3102 3102 3101 3101 3102 3101 3101 3100 3097 3093 3087 3084 3084 3080 3077 3077 3078 3077 3074 3068 3064 3061 3058 3057 3055 3053 3052 3050 3047 3044 3040 3037 3032 3027 3022 3018 3013 3008 3002 2998 2993 2988 2984 2980 2976 2972 2968 2965 2960 2956 2952 2950 2947 2943 2940 2939 2937 2934 2932 2930 2929 2927 2924 2922 2921 2920 2919 2919 2918 2918 2918 2919 2919 2919 2921 2923 2927 2932 2936
3104 3101 3101 3101 3100 3100 3099 3099 3100 3099 3099 3099 3099 3101 3100 3098 3095 3089 3082 3079 3075 3073 3074 3077 3077 3070 3061 3059 3058 3056 3055 3053 3051 3051 3048 3044 3041 3037 3033 3028 3023 3018 3014 3009 3003 2998 2993 2989 2984 2979 2974 2969 2965 2962 2958 2954 2950 2945 2942 2940 2936 2933 2931 2930 2928 2925 2923 2922 2921 2919 2916 2915 2914 2913 2913 2912 2912 2912 2912 2913 2914 2914 2916 2919 2923 2929
3101 3098 3097 3098 3097 3097 3096 3096 3097 3097 3097 3097 3096 3098 3098 3098 3098 3091 3083 3080 3077 3072 3069 3071 3072 3066 3059 3056 3055 3054 3052 3049 3048 3047 3043 3041 3038 3033 3029 3024 3019 3014 3010 3004 2999 2994 2989 2985 2980 2974 2968 2964 2959 2955 2950 2946 2942 2938 2935 2933 2930 2926 2924 2923 2921 2919 2917 2915 2915 2913 2910 2909 2908 2907 2906 2906 2906 2906 2906 2907 2908 2908 2909 2912 2915 2921
3099 3096 3094 3096 3095 3095 3095 3094 3095 3095 3095 3094 3094 3096 3095 3094 3095 3090 3084 3082 3082 3075 3065 3062 3063 3060 3058 3056 3053 3052 3049 3046 3045 3042 3039 3037 3033 3029 3025 3019 3014 3009 3005 3000 2994 2988 2984 2980 2976 2970 2965 2960 2954 2948 2942 2938 2934 2930 2926 2924 2922 2919 2917 2916 2914 2913 2911 2908 2907 2907 2904 2902 2902 2901 2900 2899 2899 2899 2899 2900 2901 2902 2903 2905 2908 2913
3097 3093 3092 3093 3093 3093 3093 3092 3093 3094 3094 3093 3092 3093 3092 3091 3090 3089 3085 3082 3084 3078 3063 3056 3056 3055 3055 3054 3050 3049 3047 3045 3043 3039 3036 3033 3028 3024 3019 3013 3008 3003 2998 2994 2988 2983 2978 2974 2970 2965 2959 2952 2946 2939 2933 2929 2925 2921 2918 2916 2914 2911 2910 2909 2907 2905 2904 2901 2900 2900 2898 2896 2895 2894 2893 2892 2892 2892 2893 2893 2894 2895 2896 2899 2902 2906
3096 3092 3090 3091 3091 3090 3090 3090 3090 3091 3091 3091 3091 3090 3089 3088 3087 3087 3087 3083 3082 3075 3059 3052 3053 3052 3052 3051 3048 3047 3045 3042 3039 3035 3031 3027 3023 3018 3013 3007 3003 2998 2993 2988 2983 2978 2973 2968 2963 2958 2952 2944 2938 2932 2925 2920 2915 2912 2910 2907 2905 2903 2902 2901 2899 2897 2896 2894 2892 2892 2891 2889 2887 2887 2886 2886 2885 2885 2886 2887 2888 2888 2890 2892 2895 2898
3094 3092 3089 3089 3089 3087 3087 3088 3088 3087 3088 3088 3088 3088 3087 3087 3086 3085 3087 3085 3081 3074 3060 3051 3050 3048 3047 3047 3046 3044 3042 3038 3034 3030 3026 3021 3018 3013 3008 3003 2998 2993 2988 2983 2979 2974 2969 2963 2956 2949 2942 2936 2929 2922 2915 2910 2906 2903 2900 2898 2896 2894 2892 2892 2891 2889 2888 2886 2885 2884 2884 2882 2880 2879 2879 2879 2879 2878 2879 2880 2881 2882 2883 2885 2887 2891
3092 3091 3088 3086 3087 3086 3085 3085 3086 3085 3085 3085 3085 3085 3084 3084 3084 3083 3084 3083 3081 3076 3065 3053 3046 3044 3043 3043 3043 3041 3039 3035 3031 3027 3022 3018 3015 3011 3005 2999 2994 2989 2983 2978 2974 2970 2964 2958 2950 2941 2933 2926 2920 2913 2906 2900 2895 2890 2888 2887 2885 2882 2881 2881 2881 2880 2879 2878 2877 2876 2876 2874 2873 2872 2872 2872 2872 2872 2872 2873 2874 2875 2876 2878 2880 2884
3090 3089 3087 3085 3085 3085 3083 3082 3083 3082 3082 3082 3081 3082 3081 3081 3080 3080 3078 3077 3077 3074 3069 3060 3047 3039 3040 3041 3040 3039 3037 3034 3030 3025 3020 3016 3012 3008 3002 2996 2990 2985 2980 2976 2971 2966 2958 2949 2941 2933 2925 2918 2911 2906 2900 2891 2883 2878 2875 2874 2873 2870 2869 2869 2870 2870 2870 2870 2869 2868 2868 2867 2865 2865 2865 2864 2865 2865 2864 2865 2867 2867 2868 2870 2873 2877
3086 3086 3085 3083 3082 3082 3081 3079 3079 3078 3078 3078 3078 3078 3078 3077 3077 3077 3074 3071 3071 3069 3067 3063 3048 3035 3037 3040 3038 3037 3035 3032 3028 3023 3017 3012 3008 3003 2998 2993 2988 2982 2977 2971 2965 2959 2951 2942 2933 2926 2919 2911 2901 2894 2889 2881 2873 2869 2866 2864 2862 2860 2858 2858 2858 2860 2861 2861 2861 2861 2860 2859 2858 2858 2858 2857 2857 2857 2857 2858 2860 2860 2861 2863 2867 2869
3083 3082 3081 3079 3079 3078 3077 3076 3075 3074 3073 3074 3074 3074 3074 3073 3072 3073 3071 3067 3066 3064 3062 3061 3049 3033 3033 3036 3036 3035 3032 3028 3025 3020 3014 3009 3004 2999 2994 2989 2985 2979 2973 2967 2959 2951 2942 2934 2927 2919 2911 2902 2891 2882 2877 2872 2865 2861 2858 2855 2853 2850 2849 2848 2849 2850 2852 2852 2851 2852 2852 2852 2851 2851 2851 2850 2850 2850 2850 2852 2853 2854 2854 2856 2859 2863
3079 3078 3077 3076 3075 3073 3072 3071 3070 3069 3069 3069 3069 3069 3069 3068 3067 3068 3067 3065 3063 3059 3057 3058 3047 3032 3030 3033 3033 3032 3029 3025 3021 3017 3012 3007 3001 2997 2991 2985 2980 2974 2968 2961 2952 2943 2934 2926 2919 2910 2901 2891 2882 2873 2868 2863 2859 2854 2850 2847 2845 2842 2839 2839 2839 2840 2841 2842 2842 2842 2843 2843 2843 2843 2843 2843 2843 2843 2844 2845 2847 2847 2848 2849 2852 2856
3075 3074 3074 3073 3072 3070 3068 3067 3066 3065 3065 3064 3064 3065 3065 3063 3064 3063 3063 3063 3059 3052 3051 3052 3040 3029 3030 3031 3029 3028 3025 3021 3017 3014 3010 3005 2999 2993 2987 2980 2975 2969 2962 2954 2945 2936 2928 2921 2913 2903 2893 2883 2874 2866 2860 2856 2852 2847 2843 2840 2837 2835 2832 2830 2830 2830 2831 2832 2832 2832 2833 2834 2834 2835 2836 2836 2836 2836 2838 2839 2841 2841 2841 2843 2845 2848
3071 3069 3070 3070 3069 3066 3063 3062 3062 3062 3061 3060 3059 3060 3060 3059 3060 3059 3059 3060 3054 3047 3046 3044 3032 3025 3028 3028 3024 3024 3021 3017 3013 3009 3006 3001 2995 2988 2981 2975 2969 2963 2956 2948 2940 2932 2924 2917 2908 2897 2886 2877 2869 2861 2853 2847 2844 2840 2837 2834 2831 2829 2826 2824 2823 2822 2822 2823 2823 2822 2823 2825 2825 2826 2828 2829 2829 2829 2830 2832 2834 2834 2835 2836 2838 2841
3066 3064 3065 3065 3064 3062 3060 3059 3058 3058 3057 3056 3055 3056 3056 3054 3054 3055 3055 3053 3049 3044 3040 3034 3027 3023 3023 3023 3021 3019 3017 3012 3008 3004 3000 2995 2989 2982 2976 2971 2965 2959 2951 2943 2936 2929 2921 2911 2901 2891 2883 2874 2865 2856 2847 2840 2836 2833 2830 2828 2826 2823 2821 2819 2818 2816 2816 2815 2815 2814 2814 2816 2817 2817 2819 2821 2822 2822 2823 2825 2827 2827 2828 2830 2832 2834
3062 3059 3059 3060 3059 3058 3058 3057 3055 3054 3052 3051 3051 3052 3052 3050 3049 3049 3048 3045 3045 3043 3033 3027 3027 3024 3019 3019 3018 3015 3013 3009 3004 2999 2995 2990 2985 2978 2972 2966 2960 2953 2946 2939 2932 2925 2917 2907 2895 2886 2877 2868 2858 2850 2842 2835 2830 2828 2825 2823 2821 2818 2816 2814 2813 2811 2810 2809 2808 2807 2807 2807 2808 2808 2809 2812 2814 2814 2815 2817 2819 2821 2822 2824 2826 2828
3059 3056 3056 3056 3055 3054 3054 3053 3052 3050 3047 3045 3046 3046 3046 3046 3044 3042 3041 3040 3041 3038 3027 3023 3026 3022 3016 3016 3014 3011 3009 3005 3001 2997 2992 2986 2981 2974 2967 2960 2953 2946 2939 2933 2927 2920 2911 2902 2892 2881 2870 2861 2852 2844 2836 2830 2825 2823 2821 2819 2816 2814 2812 2809 2808 2806 2804 2802 2801 2800 2799 2800 2800 2799 2800 2803 2805 2806 2807 2810 2812 2814 2816 2818 2820 2821
3056 3054 3053 3052 3051 3049 3049 3049 3047 3045 3042 3040 3040 3041 3040 3040 3039 3038 3036 3036 3035 3030 3023 3022 3022 3017 3014 3013 3009 3006 3005 3002 2998 2994 2989 2983 2976 2968 2961 2953 2946 2940 2934 2929 2923 2915 2906 2896 2887 2876 2864 2854 2846 2837 2830 2825 2820 2817 2815 2813 2811 2809 2807 2803 2801 2799 2797 2795 2793 2791 2790 2790 2791 2791 2791 2794 2797 2798 2801 2804 2806 2807 2810 2812 2814 2815
3053 3051 3049 3049 3048 3044 3044 3045 3043 3040 3038 3036 3036 3036 3035 3034 3033 3033 3032 3032 3031 3026 3022 3021 3017 3012 3012 3010 3005 3002 3000 2997 2994 2990 2985 2979 2971 2963 2956 2948 2942 2937 2932 2926 2918 2909 2901 2891 2880 2868 2856 2846 2839 2831 2824 2819 2815 2811 2808 2806 2804 2802 2799 2795 2792 2789 2787 2785 2783 2781 2780 2779 2780 2781 2782 2785 2788 2790 2794 2798 2800 2801 2804 2806 2808 2809
3050 3048 3047 3047 3045 3040 3039 3041 3039 3037 3035 3032 3031 3030 3029 3028 3028 3028 3027 3027 3026 3022 3019 3017 3013 3009 3008 3005 3000 2997 2994 2991 2987 2983 2978 2973 2966 2958 2951 2944 2940 2935 2929 2921 2913 2904 2895 2886 2874 2861 2849 2841 2833 2825 2818 2812 2808 2804 2801 2798 2796 2794 2791 2787 2783 2780 2777 2775 2773 2771 2769 2769 2770 2771 2773 2776 2780 2783 2787 2791 2794 2796 2798 2800 2802 2803
3047 3046 3045 3046 3043 3037 3037 3037 3036 3035 3032 3027 3025 3025 3023 3023 3024 3023 3022 3022 3022 3019 3015 3012 3009 3005 3003 3000 2995 2991 2987 2984 2980 2977 2973 2967 2961 2955 2948 2942 2938 2931 2924 2917 2908 2900 2891 2881 2869 2858 2846 2837 2829 2821 2813 2806 2801 2797 2794 2790 2787 2785 2782 2778 2775 2773 2769 2766 2763 2761 2759 2759 2760 2761 2764 2767 2771 2775 2779 2784 2787 2789 2791 2794 2796 2798
3044 3044 3044 3044 3041 3037 3035 3035 3036 3033 3025 3019 3020 3021 3019 3020 3020 3018 3018 3018 3017 3015 3011 3008 3005 3003 3000 2997 2993 2988 2983 2980 2977 2974 2971 2965 2957 2951 2946 2941 2934 2927 2920 2912 2903 2896 2887 2877 2866 2855 2844 2835 2826 2817 2809 2802 2796 2792 2788 2785 2781 2777 2774 2771 2769 2767 2763 2759 2756 2753 2750 2750 2750 2752 2755 2759 2764 2768 2772 2777 2780 2782 2784 2787 2790 2792
3040 3041 3041 3040 3039 3035 3033 3035 3034 3025 3015 3014 3018 3018 3016 3017 3016 3015 3013 3013 3012 3009 3006 3003 3001 2999 2997 2993 2991 2986 2981 2977 2973 2972 2968 2962 2954 2948 2942 2936 2930 2923 2915 2907 2898 2891 2883 2873 2862 2850 2841 2832 2824 2815 2806 2799 2793 2788 2784 2781 2776 2772 2769 2766 2763 2760 2757 2752 2749 2746 2743 2742 2742 2744 2747 2752 2756 2761 2766 2770 2773 2776 2778 2781 2784 2788
3035 3037 3036 3036 3035 3033 3031 3031 3027 3016 3010 3014 3016 3014 3013 3014 3013 3011 3008 3006 3006 3004 3001 2998 2996 2994 2992 2989 2986 2983 2977 2972 2968 2967 2964 2957 2952 2946 2939 2931 2926 2920 2913 2905 2896 2887 2880 2870 2858 2845 2835 2827 2820 2812 2804 2797 2791 2786 2782 2778 2773 2768 2765 2761 2757 2753 2750 2745 2741 2738 2736 2735 2735 2736 2739 2744 2749 2754 2760 2764 2767 2770 2773 2775 2779 2783
3030 3031 3032 3031 3030 3028 3026 3023 3018 3012 3010 3012 3012 3011 3010 3010 3010 3008 3003 3000 2999 2997 2995 2993 2992 2990 2988 2985 2982 2978 2973 2966 2961 2959 2957 2952 2948 2943 2936 2930 2924 2917 2911 2904 2895 2887 2879 2868 2855 2843 2833 2824 2817 2809 2802 2795 2789 2783 2778 2774 2769 2764 2759 2755 2751 2747 2743 2738 2734 2731 2729 2727 2727 2729 2732 2737 2743 2749 2754 2758 2761 2764 2768 2770 2774 2778
3025 3026 3027 3027 3025 3024 3022 3019 3015 3011 3008 3007 3008 3008 3007 3006 3006 3004 2999 2995 2994 2992 2990 2989 2988 2986 2983 2980 2977 2973 2968 2961 2954 2951 2950 2946 2943 2938 2932 2928 2923 2916 2909 2902 2892 2885 2877 2866 2853 2842 2831 2822 2815 2807 2799 2792 2786 2780 2774 2768 2763 2758 2753 2749 2745 2741 2737 2733 2729 2725 2722 2721 2721 2723 2726 2731 2738 2745 2750 2753 2756 2760 2763 2765 2769 2774
3021 3022 3023 3023 3020 3019 3018 3015 3010 3005 3003 3003 3005 3004 3004 3003 3002 3001 2997 2992 2989 2988 2986 2984 2984 2981 2978 2975 2972 2968 2964 2957 2949 2946 2945 2941 2938 2934 2928 2922 2918 2913 2907 2900 2890 2881 2872 2862 2850 2839 2830 2821 2813 2804 2796 2790 2783 2776 2769 2762 2756 2751 2746 2743 2740 2735 2732 2728 2724 2719 2717 2715 2716 2718 2722 2727 2734 2741 2746 2748 2751 2755 2758 2761 2765 2770
3015 3016 3017 3016 3013 3013 3013 3009 3004 2999 2999 3002 3003 3001 3001 3000 2999 2999 2996 2989 2985 2985 2982 2980 2979 2977 2974 2971 2968 2964 2961 2956 2948 2944 2942 2938 2934 2930 2925 2918 2912 2906 2900 2895 2887 2878 2870 2860 2848 2836 2827 2818 2810 2801 2793 2786 2779 2772 2764 2757 2750 2744 2740 2737 2734 2730 2726 2723 2719 2715 2712 2711 2712 2714 2718 2724 2731 2737 2741 2744 2747 2751 2754 2757 2761 2765
3009 3010 3010 3008 3007 3008 3008 3005 3000 2995 2995 2999 3001 2999 2998 2998 2996 2995 2991 2985 2983 2982 2979 2977 2975 2973 2970 2967 2964 2961 2958 2954 2948 2943 2940 2935 2929 2925 2922 2916 2909 2903 2896 2889 2882 2874 2867 2858 2847 2836 2826 2816 2807 2799 2790 2782 2776 2768 2760 2752 2745 2739 2735 2732 2728 2725 2722 2719 2715 2711 2709 2709 2710 2712 2716 2721 2728 2734 2738 2741 2745 2748 2751 2754 2758 2762
3002 3003 3003 3003 3003 3003 3002 3002 3000 2993 2989 2993 2995 2994 2994 2993 2990 2986 2983 2981 2980 2978 2975 2974 2972 2969 2966 2963 2960 2957 2954 2950 2946 2941 2936 2931 2925 2920 2917 2912 2906 2900 2894 2887 2879 2871 2863 2854 2845 2836 2827 2818 2808 2798 2788 2780 2773 2765 2757 2749 2742 2736 2731 2728 2725 2722 2719 2716 2712 2709 2708 2708 2709 2711 2715 2721 2726 2732 2736 2739 2742 2745 2748 2752 2755 2759
2995 2997 2996 2995 2996 2997 2998 2998 2998 2991 2986 2987 2990 2989 2989 2986 2982 2980 2979 2977 2975 2974 2972 2970 2968 2965 2962 2959 2956 2954 2949 2945 2941 2937 2932 2928 2922 2917 2912 2907 2901 2895 2889 2883 2876 2869 2861 2851 2842 2834 2826 2817 2807 2797 2787 2778 2770 2762 2754 2746 2740 2734 2729 2725 2722 2720 2717 2714 2711 2709 2709 2709 2710 2713 2717 2721 2726 2731 2734 2737 2739 2742 2745 2749 2752 2756
2989 2989 2989 2988 2988 2989 2988 2987 2987 2985 2983 2984 2984 2984 2983 2981 2978 2977 2976 2973 2971 2970 2968 2966 2964 2961 2959 2955 2952 2950 2946 2942 2937 2933 2928 2924 2919 2914 2910 2904 2898 2892 2886 2879 2873 2866 2858 2849 2840 2833 2826 2817 2807 2798 2788 2778 2768 2759 2751 2744 2738 2732 2727 2724 2720 2718 2717 2714 2712 2711 2711 2712 2713 2715 2718 2722 2725 2729 2732 2735 2737 2739 2742 2746 2749 2752
2982 2983 2984 2983 2982 2981 2979 2978 2980 2982 2981 2980 2980 2979 2979 2977 2975 2974 2972 2970 2968 2966 2964 2962 2960 2957 2955 2952 2949 2946 2943 2938 2934 2930 2925 2920 2915 2910 2906 2901 2895 2889 2883 2877 2871 2864 2857 2848 2839 2831 2824 2817 2808 2798 2789 2779 2768 2758 2750 2743 2737 2731 2726 2722 2720 2718 2717 2716 2714 2714 2714 2715 2716 2718 2720 2723 2726 2728 2731 2734 2735 2737 2740 2743 2746 2748
2978 2981 2981 2979 2978 2978 2976 2975 2977 2978 2977 2976 2976 2975 2974 2973 2972 2971 2969 2967 2965 2963 2962 2960 2957 2954 2952 2949 2945 2943 2940 2935 2931 2927 2922 2917 2912 2907 2902 2897 2892 2886 2880 2875 2868 2861 2854 2847 2838 2829 2821 2816 2808 2799 2791 2782 2771 2760 2751 2743 2738 2732 2726 2722 2720 2718 2718 2718 2717 2717 2718 2718 2720 2721 2722 2724 2727 2729 2731 2733 2734 2736 2739 2741 2743 2745
2975 2978 2977 2975 2976 2974 2971 2971 2973 2974 2973 2973 2973 2971 2969 2969 2968 2967 2965 2963 2962 2961 2959 2957 2954 2952 2949 2945 2942 2939 2936 2932 2927 2923 2919 2914 2908 2904 2899 2893 2888 2882 2877 2872 2865 2858 2851 2844 2836 2827 2819 2813 2807 2800 2792 2783 2773 2763 2754 2746 2740 2734 2729 2724 2721 2719 2719 2719 2719 2719 2720 2721 2722 2723 2724 2726 2727 2729 2730 2732 2734 2735 2737 2739 2741 2743
2972 2973 2972 2972 2971 2969 2967 2968 2971 2970 2968 2969 2969 2966 2965 2965 2964 2963 2962 2960 2959 2958 2956 2954 2951 2949 2945 2942 2939 2935 2933 2929 2924 2920 2916 2911 2905 2900 2895 2890 2885 2879 2875 2870 2864 2857 2849 2842 2835 2828 2819 2812 2806 2800 2793 2784 2775 2765 2757 2749 2742 2737 2732 2727 2724 2721 2720 2720 2720 2721 2722 2723 2724 2724 2726 2727 2728 2729 2729 2731 2732 2734 2735 2737 2739 2741
2967 2967 2967 2967 2966 2964 2964 2966 2967 2964 2963 2964 2964 2962 2961 2960 2959 2958 2958 2956 2955 2954 2952 2950 2948 2946 2943 2939 2935 2932 2929 2925 2921 2917 2912 2907 2902 2897 2892 2887 2882 2877 2872 2868 2863 2856 2848 2841 2835 2828 2819 2813 2808 2801 2792 2785 2777 2768 2758 2751 2745 2739 2734 2731 2727 2725 2722 2721 2721 2721 2722 2724 2724 2725 2726 2727 2728 2728 2729 2730 2731 2732 2734 2736 2738 2740
2961 2960 2962 2963 2961 2959 2960 2962 2962 2960 2958 2958 2959 2958 2956 2956 2955 2954 2953 2952 2951 2950 2949 2947 2945 2943 2940 2936 2932 2929 2926 2922 2918 2913 2909 2904 2899 2894 2889 2884 2880 2875 2870 2865 2861 2856 2850 2842 2835 2828 2820 2815 2810 2802 2793 2786 2779 2770 2762 2754 2748 2741 2736 2733 2730 2728 2725 2723 2722 2722 2722 2723 2723 2724 2725 2726 2726 2727 2728 2729 2730 2731 2733 2735 2737 2738
2955 2955 2958 2957 2955 2954 2956 2958 2958 2956 2954 2954 2954 2953 2951 2951 2950 2950 2949 2949 2948 2946 2945 2943 2940 2938 2936 2933 2929 2925 2922 2919 2915 2910 2906 2901 2897 2892 2887 2881 2877 2872 2867 2863 2858 2854 2849 2842 2836 2829 2822 2816 2810 2803 2795 2788 2780 2772 2764 2757 2751 2744 2739 2735 2732 2730 2727 2724 2723 2722 2722 2722 2723 2723 2724 2725 2725 2726 2727 2728 2729 2730 2731 2732 2734 2736